SL-14 DEB, 45302

Orbit data source: Space-Track

SL-14 DEB, 45302 is space debris in LEO originally from a launch on Thu, 15 Aug 1991 UTC launched from the Plesetsk Missile And Space Complex (PKMTR). Debris objects in space refer to the collection of defunct objects orbiting the Earth. Examples of debris include non-operational satellites, rocket bodies, and fragments generated from explosions, collisions, or faulty payload assembly.

Loading next visibility...
SL-14 DEB details
Identifier
45302, 1991-056AQ
Orbit
LEO
Last TLE update12 hours ago
Origin
Flag of CISRosgidromet (CIS)
ManufacturerUnknown
MissionSpacecraft
Bus & MotorUnknown
MassUnknown
Launch date (UTC)
1991-08-15 (33 years ago)
Launch vehicleUnknown
Launch site
Plesetsk Missile And Space Complex (PKMTR)
Object type
Payload
Rocket body
Debris
Shape & HBRUnknown
Radar Cross SectionSmall (<0.1 m²)

Expand to show TLE details & history

TLE from 12 hours ago
0 SL-14 DEB
1 45302U 91056AQ  24361.06615207  .00020565  00000-0  27694-1 0  9995
2 45302  82.5932 117.3316 0156381 205.3397 154.0021 13.54712461237807
Epoch: 2024-12-26T01:35Z
Definitive object data (Epoch: 2024-12-26T01:35:15.538Z)
Latitude-0.00003°
Longitude-1.53403°
Altitude1,162.672 km
Speed7.22 km/s
True Right ascension07h 49m 19s
True Declination0° 00' 00"
Sunlit
Object was in full shadow at TLE epoch
Visualization TLE readout
Latitude-30.19699°
Longitude-177.58338°
Altitude950.557 km
Speed7.433 km/s
Apparent Right ascension22h 01m 25s
Apparent Declination-39° 36' 51"
Sunlit
Object is in daylight
Visualization observer readout
Local Sidereal Time12:37:16
Azimuth102.194° ESE
Elevation-60.292°
Doppler factor1
Orbital elements
Apogee altitude1,168.356 km
Perigee altitude935.964 km
Semi-major axis7,430.297 km
Eccentricity0.0156381
Inclination82.5932°
RAAN117.3316°
Arg. of periapsis205.3397°
True anomaly154.774°
Mean anomaly154.0021°
Eccentric anomaly154.3894°
Mean motion3.38871 °/min
BSTAR0.027694
Orbital period106.24 mins
Loading maneuver chart data...
Loading historical data...
Loading historical data...
Loading historical data...
Loading historical data...
Loading historical data...
Loading historical data...
Loading historical data...

SL-14 DEB Visibility forecast

Observer location: undefined°, undefined

Span
Click to sort rows by Start time (UTC) header in descending order
Start Az.
Max El. time (UTC)
Max El. Az.
Max El.
End time (UTC)
End Az.
5 mins2024-12-26 18:09:37.339Z35.735° NE2024-12-26 18:12:37.339Z64.003° ENE13.217°2024-12-26 18:14:37.339Z83.871° E
11 mins2024-12-26 19:55:37.339Z352.002° N2024-12-26 20:00:37.339Z317.08° NNW44.955°2024-12-26 20:06:37.339Z175.26° S
11 mins2024-12-27 07:50:37.339Z146.806° SSE2024-12-27 07:55:37.339Z83.893° E32.711°2024-12-27 08:01:37.339Z23.456° NE
11 mins2024-12-27 09:37:37.339Z228.235° WSW2024-12-27 09:42:37.339Z287.738° WNW30.772°2024-12-27 09:48:37.339Z349.797° N
|